SSEC Globe Logo

Space Science and Engineering Center

Wisconsin State Observations

ASUS43 KMKX 292220                                              2020089 2221
RWRWI
WISCONSIN REGIONAL WEATHER ROUNDUP
NATIONAL WEATHER SERVICE MILWAUKEE/SULLIVAN WI
NOTE: "FAIR" INDICATES FEW OR NO CLOUDS BELOW 12,000 FEET WITH NO
SIGNIFICANT WEATHER AND/OR OBSTRUCTIONS TO VISIBILITY.

CITY           SKY/WX    TMP DP  RH WIND       PRES   REMARKS
SUPERIOR ARPT  CLOUDY    47  27  44 NE10G24   29.83R
ASHLAND        MIX PCPN  37  35  92 N14G24    29.78R WCI  28
HAYWARD        LGT RAIN  37  34  89 N9        29.77R WCI  30
SIREN          PTSUNNY   42  36  78 N13G26    29.83R
CUMBERLAND     CLOUDY    39  32  75 N24G37    29.78R WCI  28
RICE LAKE      DRIZZLE   40  36  87 NW13G20   29.80R WCI  32
CHETEK         LGT RAIN  38  36  91 N10G20    29.77R WCI  31
LADYSMITH      LGT RAIN  38  37  97 NW13G18   29.74R WCI  30
EAU CLAIRE     LGT RAIN  41  35  79 NW15G24   29.75R
MENOMONIE      LGT RAIN  38  34  86 NW16G28   29.80R WCI  29
NEW RICHMOND   CLOUDY    43  35  72 NW14G22   29.83R
OSCEOLA        CLOUDY    44  37  75 W7        29.87R


CITY           SKY/WX    TMP DP  RH WIND       PRES   REMARKS
MANITOWISH WTR LGT SNOW  33  33  98 N10G23    29.65R WCI  25
ARBOR VITAE    CLOUDY    37  34  89 N17G23    29.62R WCI  27
WOODRUFF       CLOUDY    37  34  89 N17G23    29.62R WCI  27
RHINELANDER    LGT RAIN  34  31  88 NW8       29.59R FOG     WCI  27
EAGLE RIVER    CLOUDY    33  33 100 N10       29.60R FOG     WCI  25
LAND O LAKES   LGT SNOW  33  32  95 N13       29.61R WCI  24
PHILLIPS       LGT SNOW  33  33 100 NW9G16    29.67R WCI  25
TOMAHAWK       CLOUDY    34  31  91 NW7       29.62R WCI  28
MEDFORD        DRIZZLE   33  32  94 NW14G21   29.66R WCI  24
MERRILL        CLOUDY    37  33  86 NW12      29.63R WCI  29


CITY           SKY/WX    TMP DP  RH WIND       PRES   REMARKS
WAUSAU         CLOUDY    39  33  79 NW17G25   29.59R WCI  30
MOSINEE        DRIZZLE   39  36  87 NW13G18   29.61R WCI  32
MARSHFIELD     LGT RAIN  38  33  82 NW21G28   29.64R WCI  28
STEVENS POINT  DRIZZLE   37  37  97 W7        29.62R WCI  32
WAUPACA        CLOUDY    43  37  77 W12       29.62R
WAUTOMA          N/A     41  37  86 W14       29.64R
WISC RAPIDS    CLOUDY    40  34  79 W18G24    29.65R WCI  31
CAMP DOUGLAS   LGT RAIN  39  39 100 W20G25    29.70R WCI  30


CITY           SKY/WX    TMP DP  RH WIND       PRES   REMARKS
ANTIGO         CLOUDY    36  34  91 NW15      29.57R WCI  27
SHAWANO        CLOUDY    43  39  87 NW8       29.57R
OCONTO         CLOUDY    42  38  87 NW9       29.54R
STURGEON BAY   LGT RAIN  41  39  93 W9        29.53R
GREEN BAY      LGT RAIN  44  37  76 W18G28    29.56R
MANITOWOC      LGT RAIN  44  39  82 W17G31    29.56R
APPLETON       CLOUDY    41  37  87 W17       29.57R
CLINTONVILLE   CLOUDY    42  37  82 NW8       29.58R
OSHKOSH        CLOUDY    41  38  89 W16G26    29.61R


CITY           SKY/WX    TMP DP  RH WIND       PRES   REMARKS
LA CROSSE      LGT RAIN  43  36  76 NW17G26   29.76R
SPARTA         CLOUDY    39  35  86 W9        29.73R WCI  33
VIROQUA        CLOUDY    39  38  96 W14G23    29.75R WCI  31
BOSCOBEL       CLOUDY    44  35  70 W13G21    29.76R
PRAIRIE DU CHI CLOUDY    43  34  70 W17G24    29.80R
PLATTEVILLE    CLOUDY    42  38  85 W22G31    29.77R

CITY           SKY/WX    TMP DP  RH WIND       PRES   REMARKS
REEDSBURG      CLOUDY    40  37  87 W14       29.70R WCI  32
BARABOO/DELLS  DRIZZLE   38  36  94 W13       29.69R WCI  30
LONE ROCK      CLOUDY    42  36  79 W14       29.73R
MINERAL POINT  CLOUDY    43  36  75 W20G28    29.73R
MADISON        CLOUDY    42  34  73 W14G26    29.68R
MIDDLETON      CLOUDY    42  37  80 W23       29.71R
WATERTOWN      CLOUDY    41  39  93 W15G22    29.67R
MONROE         CLOUDY    42  34  72 W33G43    29.73R
JANESVILLE     CLOUDY    45  36  70 W22G35    29.71R


CITY           SKY/WX    TMP DP  RH WIND       PRES   REMARKS
MILWAUKEE      CLOUDY    46  35  65 W16G37    29.64R
WAUKESHA       CLOUDY    41  36  81 W22G32    29.65R
MILWAUKEE/TIMM CLOUDY    43  36  75 W17G31    29.63R
RACINE         CLOUDY    45  36  70 W25G38    29.67R
KENOSHA        CLOUDY    46  36  68 W25G41    29.67R
FOND DU LAC    LGT RAIN  43  38  82 W18G28    29.61R
SHEBOYGAN      CLOUDY    47  39  74 W23G33    29.58R
WEST BEND      CLOUDY    41  39  93 W21G28    29.61R
JUNEAU         CLOUDY    40  38  91 W15G23    29.66R WCI  32
LSZ147-162-292300-
LAKE SUPERIOR

STATION/POSITION TIME  TEMP    WIND        PRES    WAVE
                       AIR SEA DIR/SP/G            HT/PER
                 (UTC) (F)     (DEG/KT/KT) (MB)    (FT/S)
DEVILS ISLAND    2200   39      20/ 24/ 27 1009.2R
SAXON HARBOR     2140   35     350/ 16/ 21 1006.8R

LMZ867-665-643>646-292300-
LAKE MICHIGAN

STATION/POSITION TIME  TEMP    WIND        PRES    WAVE
                       AIR SEA DIR/SP/G            HT/PER
                 (UTC) (F)     (DEG/KT/KT) (MB)    (FT/S)
NORTHPORT PIER   2140   40     260/  6/ 12  998.3R
KEWAUNEE LAKESHO 2142   43     290/ 11/ 18  999.3R
SHEBOYGAN LAKESH 2200   44     280/ 17/ 20   N/A
PORT WASHINGTON  2130   45     260/ 15/ 24 1003.4R
MILWAUKEE LAKESH 2130   45     240/ 19/ 25   N/A
KENOSHA   LAKESH 2200   45     270/ 19/ 30 1005.4
TC  - TEMPERATURE IN CELSIUS
VSB - VISIBILITY IN STATUTE MILES
WCI - WIND CHILL INDEX
HX  - HEAT INDEX